Tracking 20041 objects as of 22-Nov-2019
Live streaming from Space Station
objects crossing your sky now

CZ-3B DEB

Track CZ-3B DEB now!


NORAD ID: 38748
Int'l Code: 2010-042C
Perigee: 302.5 km
Apogee: 38,231.8 km
Inclination: 23.2 °
Period: 680.9 minutes
Semi major axis: 25638 km
RCS: 0.003 m2 (small)
Launch date: September 4, 2010
Source: People's Republic of China (PRC)
Launch site: Xichang Space Center, China (XSC)

Note: This is SATELLITE DEBRIS
aabbcc
Your satellite tracking list
Your tracking list is empty




NASA's NSSDC Master Catalog

Two Line Element Set (TLE):
1 38748U 10042C   19266.76148398  .00001889  00000-0  13633-2 0  9991
2 38748  23.2485 213.4290 7397030 263.7840  15.9332  2.11481576 60224
Source of the keplerian elements: AFSPC